Regional Weather Roundup
Issued by NWS

Home | Current Version | Previous Version | Graphics & Text | Print | Product List | Glossary On
Versions: 1 2 3 4 5 6 7 8 9 10 11 12 13 14 15 16 17 18 19 20 21 22 23 24 25 26 27 28 29 30 31 32 33 34 35 36 37 38 39 40 41 42 43 44 45 46 47 48 49 50
000
ASUS43 KDTX 010310
RWRMI
MICHIGAN HOURLY REGIONAL WEATHER ROUNDUP
NATIONAL WEATHER SERVICE DETROIT/PONTIAC MI
1100 PM EDT MON AUG 31 2015

NOTE: "FAIR" INDICATES FEW OR NO CLOUDS BELOW 12,000 FEET WITH NO
SIGNIFICANT WEATHER AND/OR OBSTRUCTION TO VISIBILITY.

MIZ047>049-052>055-059>063-066>070-074>076-081>083-010400-
SOUTHEAST LOWER MICHIGAN

CITY           SKY/WX    TMP DP  RH WIND       PRES   REMARKS
ADRIAN         CLEAR     67  64  90 CALM      30.09R
ALMA           FOG       64  63  99 CALM      30.07R VSB 1/2
ANN ARBOR      FOG       65  64  97 W3        30.07S VSB 1/4
BAD AXE        FOG       63  63  98 CALM      30.06S VSB 3/4
CARO           FOG       61  61 100 CALM      30.06R VSB 1/2
DETROIT CITY   CLEAR     72  63  73 CALM      30.06S
DETROIT        CLEAR     74  70  87 S3        30.07R
FLINT          CLEAR     67  64  90 S5        30.07R
GROSSE ILE     CLEAR     73  70  88 S3        30.06R FOG
HILLSDALE      CLEAR     67  67 100 CALM      30.10R FOG
HOWELL         CLEAR     67  66  94 CALM      30.08R FOG

CITY           SKY/WX    TMP DP  RH WIND       PRES   REMARKS
JACKSON        CLEAR     67  66  97 CALM      30.08S FOG
LAMBERTVILLE   CLEAR     69  66  90 CALM      30.08R FOG
LANSING        CLEAR     68  66  93 CALM      30.08R
LAPEER         FOG       63  63 100 CALM      30.07S VSB 1/2
MASON          FOG       65  63  91 CALM      30.08S VSB 1/4
MONROE         CLEAR     68  66  93 CALM      30.06R FOG
MT. CLEMENS    CLEAR     67  64  91 CALM      30.05R
PONTIAC        CLEAR     68  65  90 CALM      30.07R
PORT HOPE        N/A     69  66  90 SW6       30.03S
PORT HURON     FOG       61  61 100 CALM      30.06S VSB 1/4
TRI CITIES     CLEAR     69  66  90 SW3       30.06S FOG
MIDLAND          N/A     65  64  96 CALM      30.05S FOG
TROY           CLEAR     73  66  81 CALM      30.08S
SAGINAW HB     CLEAR     64  63  94 CALM      30.05S FOG
$$
MIZ043>046-050>051-056>058-064>065-071>073-077>080-010400-
SOUTHWEST LOWER MICHIGAN

CITY           SKY/WX    TMP DP  RH WIND       PRES   REMARKS
BATTLE CREEK   CLEAR     70  67  90 CALM      30.09R
BENTON HARBOR  CLEAR     68  66  93 CALM      30.05R FOG
BIG RAPIDS     PTCLDY    64  63  96 CALM      30.06S FOG
COLDWATER      CLEAR     66  66 100 CALM      30.08S FOG
FREMONT        FOG       62  62 100 CALM      30.05S VSB 1/2
HOLLAND        CLEAR     66  63  90 CALM      30.06S FOG
GRAND RAPIDS   CLEAR     67  65  93 S3        30.07R FOG
IONIA          FAIR      65  65  98 SW3       30.06S FOG
KALAMAZOO      CLEAR     68  65  90 CALM      30.08R
LUDINGTON      CLEAR     64  61  92 CALM      30.05R FOG
MARSHALL       FOG       65  64  97 CALM      30.08R VSB 1/4
MOUNT PLEASANT FOG       66  64  93 CALM      30.06R VSB<1/4
MUSKEGON       CLOUDY    66  63  90 CALM      30.05S FOG
SOUTH HAVEN    CLEAR     65  64  95 CALM      30.05S
$$
MIZ016>042-010400-
NORTHERN LOWER MICHIGAN

CITY           SKY/WX    TMP DP  RH WIND       PRES   REMARKS
ALPENA         FOG       62  61  96 CALM      30.03S VSB 1/4
BEAVER ISLAND  CLEAR     67  65  93 SW6       30.01S
BELLAIRE       CLEAR     66  64  94 CALM      30.03R
CADILLAC       FOG       65  64  97 CALM      30.06S VSB 1/2
CHARLEVOIX     CLEAR     67  65  96 SW3       30.05R
FRANKFORT      CLEAR     67  64  90 CALM      30.03S
GAYLORD        CLEAR     66  65  96 SW5       30.05S
GRAYLING       FAIR      62  61  96 CALM      30.07R
HARBOR SPRINGS CLEAR     64  63  97 CALM      30.02R
HOUGHTON LAKE  CLEAR     69  66  90 SW5       30.07R
MANISTEE       CLEAR     63  59  88 CALM      30.05R VSB 1
OSCODA         CLEAR     65  64  95 SW3       30.03R
PELLSTON       CLEAR     61  60  97 CALM      30.03R
ROGERS CITY    FOG       64  63  95 SE3       30.03S VSB 1
TRAVERSE CITY  CLEAR     70  66  87 CALM      30.02S
$$
MIZ007>008-015-010400-
EASTERN UPPER MICHIGAN

CITY           SKY/WX    TMP DP  RH WIND       PRES   REMARKS
KINROSS        PTCLDY    63  63 100 S6        30.01R
MACKINAC ISLAN CLEAR     65  63  91 S6        30.02R
NEWBERRY       CLOUDY    66  65  97 SW12G20   29.99S FOG
S. S. MARIE    MOCLDY    65  63  93 SE3       30.01R
MUNISING         N/A     71  65  81 S13       29.94S
$$
MIZ004>006-011>014-085-010400-
CENTRAL UPPER MICHIGAN

CITY           SKY/WX    TMP DP  RH WIND       PRES   REMARKS
MANISTIQUE     CLOUDY    65  64  96 SW10      29.99S FOG
ESCANABA       CLEAR     64  63  94 S3        29.97S
MENOMINEE      CLEAR     68  64  88 SW6       29.98S
SAWYER-GWINN   CLEAR     71  65  83 SW9       29.97S
$$
MIZ001>003-009>011-084-010400-
WESTERN UPPER MICHIGAN

CITY           SKY/WX    TMP DP  RH WIND       PRES   REMARKS
IRON MOUNTAIN  CLEAR     67  64  90 S3        29.98R
HOUGHTON       CLEAR     73  63  70 SW7       29.91S
IRONWOOD       CLEAR     72  68  88 SW9       29.90S
$$

ABBREVIATIONS USED IN REMARKS
   TC - TEMPERATURE IN CELSIUS
  WCI - WIND CHILL INDEX
   HX - HEAT INDEX
  VSB - VISIBILITY



USA.gov is the U.S. government's official web portal to all federal, state and local government web resources and services.